IRIDIUM 56 [-] (25170 NORAD) Tracking and Keplerian Element Data

This shows tracking and keplerian element data for the satellite.

Feedback or suggestion? Click here.




ElementValue
Catalog25170
NameIRIDIUM 56 [-]
Epoch Orbit8122
Epoch Day284.38011863
Epoch Year2018
RAAN145.8182
Inclination86.3769
Eccentricity0.0033126
Argument of Perigee357.4376
Mean Anonmoly2.7592
Mean Motion16.4339484
Decay Rate0.17267319
L11 25170U 98010B 18284.38011863 .17267319 -95414-6 34463-3 0 9995
L22 25170 86.3769 145.8182 0033126 357.4376 2.7592 16.43394840 81225

Live tracking and technical data element details for IRIDIUM 56 [-] (NORAD 25170). IRIDIUM 56 [-] can be tracked NOW for your location showing map with azimuth and elevation plus other details from your city location.

Track the satellite on the map from your city or location and see movement details for azimuth, elevation, latitude, longitude, range, height, and movement on the map or in text.







IsCatalogInMostPopularTable: catalog: 25170, numindb: 45
Update: records affected: 1



GetName: 25170 IRIDIUM 56 [-]

Hit Count: updated at: Sat, 15 Dec 2018 17:56:56 GMT